[[{"header":{"parameterUnit":"m.s-1","parameterCategory":1,"la1":30.2991,"la2":30.254,"lo1":-89.0895,"lo2":-89.0444,"dy":0.0017,"dx":0.0017,"nx":28,"ny":28,"refTime":"2024-12-14T09:00:00:Z","depth":0,"parameterNumber":2,"parameterNumberName":"U-component_of_WINDS"},"data":[0,0,0,0,0,0,0,0,0,0,0,0,0,0,0,0,0,0,0,0,0,0,0,0,0,0,0,0,0,0,0,0,0,0,0,0,0,0,0,0,0,0,0,0,0,0,0,0,0,0,0,0,0,0,0,0,0,0,-5.6175,-5.6175,0,-5.6184,-5.6184,-5.6184,-5.6045,-5.6041,-5.6037,-5.6034,-5.6044,-5.6047,-5.6051,0,0,0,0,0,0,0,0,0,0,0,0,0,-5.6038,-5.6041,-5.6175,-5.6175,-5.6175,-5.6184,-5.6184,-5.6184,-5.6046,-5.6041,-5.6036,-5.6032,-5.6042,-5.6047,-5.6051,0,0,0,0,0,0,0,0,0,0,0,0,0,-5.6077,-5.6042,-5.6175,-5.6107,-5.6101,-5.6184,-5.6184,-5.6184,-5.6047,-5.6041,-5.6035,-5.603,-5.6041,-5.6046,-5.6052,-5.6201,0,0,-5.6069,-5.6072,0,0,0,0,0,0,0,0,-5.6075,-5.6083,-5.6117,-5.6112,-5.6105,-5.6108,-5.6139,-5.619,-5.6048,-5.6067,-5.6034,-5.6027,-5.607,-5.6072,-5.6087,-5.6201,-5.6201,-5.607,-5.6073,-5.6076,-5.6077,0,0,0,0,0,0,0,-5.6073,-5.6081,-5.6178,-5.6117,-5.611,-5.6076,-5.6076,-5.6148,-5.61,-5.6065,-5.6055,-5.6058,-5.6065,-5.6082,-5.6086,-5.6202,-5.607,-5.6075,-5.6078,-5.608,-5.6441,-5.6447,0,0,0,0,0,0,-5.6079,-5.608,-5.6178,-5.6179,-5.6076,-5.6084,-5.6083,-5.6113,-5.6099,-5.6091,-5.6063,-5.6052,-5.6075,-5.6079,-5.6086,-5.626,-5.6076,-5.6081,-5.6084,-5.6435,-5.6442,-5.6449,0,0,0,0,0,0,-5.6077,-5.6089,-5.6178,-5.6127,-5.6135,-5.6092,-5.6127,-5.6116,-5.6132,-5.6097,-5.6088,-5.6088,-5.607,-5.6078,-5.6174,-5.6259,-5.6084,-5.6089,-5.6427,-5.6437,-5.6445,-5.661,0,0,0,0,0,0,-5.6073,-5.6089,-5.6145,-5.6129,-5.6139,-5.6266,-5.6132,-5.612,-5.6142,-5.6127,-5.6119,-5.6112,-5.6066,-5.6166,-5.6179,-5.6263,-5.6093,-5.6419,-5.6432,-5.6442,-5.6597,-5.6624,-5.6647,0,0,0,0,0,-5.6069,-5.619,-5.6148,-5.6161,-5.6207,-5.6271,-5.6276,-5.6221,-5.6149,-5.6205,-5.6183,-5.6112,-5.6247,-5.6177,-5.6191,-5.6278,-5.6414,-5.6428,-5.6442,-5.6586,-5.6618,-5.6646,0,0,0,0,0,0,-5.6216,-5.6187,-5.614,-5.626,-5.6269,-5.6247,-5.6316,-5.6258,-5.6287,-5.6272,-5.6203,-5.6203,-5.631,-5.6303,-5.6225,-5.6422,-5.6318,-5.6335,-5.6423,-5.6454,-5.6478,-5.6478,-5.6098,0,0,0,0,0,-5.6263,-5.6317,-5.6288,-5.6396,-5.6404,-5.636,-5.6385,-5.6342,-5.6349,-5.6352,-5.6337,-5.6346,-5.6391,-5.6422,-5.646,-5.6595,-5.6592,-5.6662,-5.6687,-5.6708,-5.6724,-5.6796,-5.6828,-5.6494,-5.6494,-5.6494,0,0,-5.6359,-5.635,-5.6388,-5.6426,-5.6428,-5.6486,-5.6363,-5.6429,-5.6472,-5.6362,-5.6452,-5.6442,-5.6448,-5.6564,-5.6615,-5.6562,-5.6815,-5.6725,-5.6742,-5.6747,-5.6814,-5.6845,-5.6874,-5.6504,-5.6502,-5.65,0,0,-5.6564,-5.6562,-5.6653,-5.6659,-5.6664,-5.6634,-5.6657,-5.6644,-5.6633,-5.6723,-5.6642,-5.6692,-5.677,-5.6778,-5.6792,-5.7004,-5.694,-5.7019,-5.715,-5.7221,-5.7248,-5.7271,-5.7348,-5.7376,-5.7035,-5.7035,-5.7036,0,-5.6683,-5.6767,-5.6707,-5.678,-5.68,-5.6704,-5.6796,-5.6804,-5.6822,-5.6838,-5.6778,-5.6876,-5.6873,-5.6991,-5.7043,-5.7057,-5.7082,-5.702,-5.7249,-5.7271,-5.7292,-5.7364,-5.7393,-5.7045,-5.7044,-5.7043,-5.7042,0,-5.6914,-5.6974,-5.7047,-5.7068,-5.7096,-5.7178,-5.7132,-5.7167,-5.7123,-5.71,-5.7194,-5.7187,-5.7224,-5.7249,-5.7206,-5.7362,-5.7329,-5.7261,-5.7154,-5.7334,-5.7401,-5.7429,-5.7059,-5.7055,-5.7052,-5.705,0,0,-5.7211,-5.72,-5.7228,-5.7237,-5.7237,-5.7282,-5.7361,-5.7398,-5.7431,-5.7447,-5.7512,-5.7581,-5.7518,-5.7535,-5.7492,-5.7555,-5.7726,-5.7478,-5.7478,-5.7526,-5.7899,-5.7952,-5.7985,-5.7683,-5.7688,-5.7692,-5.7899,0,-5.7412,-5.7545,-5.7495,-5.7633,-5.7688,-5.7599,-5.7668,-5.7676,-5.7657,-5.7702,-5.7681,-5.7732,-5.7644,-5.7654,-5.7712,-5.7693,-5.78,-5.7677,-5.7744,-5.7747,-5.7746,-5.802,-5.8075,-5.827,-5.7925,-5.7929,-5.7933,0,-5.7663,-5.7692,-5.7835,-5.7828,-5.785,-5.7912,-5.7943,-5.7987,-5.7995,-5.7977,-5.7997,-5.7941,-5.8019,-5.7914,-5.802,-5.7938,-5.7962,-5.7957,-5.7963,-5.7968,-5.7851,-5.8033,-5.8331,-5.8361,-5.7973,-5.797,-5.7967,0,-5.7867,-5.7941,-5.8037,-5.8047,-5.8041,-5.8088,-5.8087,-5.8089,-5.8116,-5.8143,-5.816,-5.8196,-5.8215,-5.8245,-5.8201,-5.8128,-5.8315,-5.8205,-5.8303,-5.8304,-5.8346,-5.8344,-5.8654,-5.8361,-5.8361,-5.836,-5.836,0,-5.8097,-5.8189,-5.8129,-5.8188,-5.8289,-5.8231,-5.8332,-5.8321,-5.8325,-5.8381,-5.8306,-5.836,-5.8298,-5.8347,-5.8313,-5.8408,-5.8417,-5.8405,-5.8395,-5.8413,-5.8415,-5.8428,-5.8414,-5.8368,-5.8366,-5.8365,-5.8363,0,-5.8341,-5.8305,-5.8404,-5.8391,-5.839,-5.8465,-5.8453,-5.8508,-5.8485,-5.8557,-5.8571,-5.8535,-5.8588,-5.8548,-5.86,-5.8577,-5.8703,-5.8673,-5.87,-5.8693,-5.8793,-5.8785,-5.9123,-5.9165,-5.8845,-5.8848,-5.8851,0,-5.849,-5.8559,-5.8554,-5.8587,-5.8592,-5.8645,-5.8672,-5.8618,-5.8649,-5.8666,-5.8719,-5.8767,-5.8802,-5.8892,-5.8871,-5.8912,-5.8883,-5.8999,-5.8888,-5.8904,-5.8886,-5.8883,-5.889,-5.9021,-5.9025,-5.9028,-5.903,0,-5.876,-5.8739,-5.8781,-5.8818,-5.8853,-5.8879,-5.8899,-5.893,-5.8876,-5.8915,-5.897,-5.8997,-5.9052,-5.9101,-5.9135,-5.9134,-5.9075,-5.9065,-5.909,-5.9109,-5.9122,-5.9118,-5.8762,-5.9058,-5.9055,-5.9053,-5.9051,-5.905,-5.8961,-5.9019,-5.9026,-5.9076,-5.9086,-5.9107,-5.9159,-5.9143,-5.9188,-5.9229,-5.9194,-5.9261,-5.9269,-5.9308,-5.9315,-5.9367,-5.9319,-5.9355,-5.9364,-5.9374,-5.9389,-5.9114,-5.9372,-5.9372,-5.9371,-5.937,-5.937,0,-5.9227,-5.9228,-5.9275,-5.9306,-5.9347,-5.9287,-5.9307,-5.9345,-5.9404,-5.9417,-5.9454,-5.9519,-5.9566,-5.955,-5.9592,-5.9637,-5.9611,-5.965,-5.9646,-5.9648,-5.9428,-5.9403,-5.9671,-5.9671,-5.9671,-5.9671,-5.9671,-5.967,-5.937,-5.9466,-5.9447,-5.9548,-5.9547,-5.9612,-5.9629,-5.9649,-5.9659,-5.9735,-5.9774,-5.9763,-5.9765,-5.9808,-5.9849,-5.9843,-5.9863,-5.9913,-5.9897,-5.9692,-5.9663,-5.9634,-5.961,-5.9917,-5.9918,-6.0112,-6.0114,-6.0115]},{"header":{"parameterUnit":"m.s-1","parameterCategory":1,"la1":30.2991,"la2":30.254,"lo1":-89.0895,"lo2":-89.0444,"dy":0.0017,"dx":0.0017,"nx":28,"ny":28,"refTime":"2024-12-14T09:00:00:Z","depth":0,"parameterNumber":3,"parameterNumberName":"V-component_of_WINDS"},"data":[0,0,0,0,0,0,0,0,0,0,0,0,0,0,0,0,0,0,0,0,0,0,0,0,0,0,0,0,0,0,0,0,0,0,0,0,0,0,0,0,0,0,0,0,0,0,0,0,0,0,0,0,0,0,0,0,0,0,-0.9902,-0.9901,0,-0.9859,-0.9858,-0.9858,-0.98,-0.9799,-0.9798,-0.9797,-0.9754,-0.9754,-0.9754,0,0,0,0,0,0,0,0,0,0,0,0,0,-0.9934,-0.9934,-0.9902,-0.9901,-0.9901,-0.9859,-0.9858,-0.9858,-0.98,-0.9799,-0.9797,-0.9796,-0.9754,-0.9754,-0.9754,0,0,0,0,0,0,0,0,0,0,0,0,0,-0.9908,-0.9933,-0.9902,-0.9867,-0.9863,-0.9859,-0.9858,-0.9858,-0.98,-0.9799,-0.9797,-0.9796,-0.9754,-0.9754,-0.9754,-0.9781,0,0,-0.9753,-0.9752,0,0,0,0,0,0,0,0,-0.991,-0.9907,-0.9873,-0.9869,-0.9865,-0.9833,-0.9854,-0.9832,-0.98,-0.9824,-0.9797,-0.9795,-0.9782,-0.9779,-0.9774,-0.9779,-0.9777,-0.9753,-0.9752,-0.9752,-0.9752,0,0,0,0,0,0,0,-0.9912,-0.9909,-0.9885,-0.9872,-0.9868,-0.9853,-0.9848,-0.985,-0.9812,-0.9822,-0.9818,-0.9813,-0.9779,-0.9775,-0.9773,-0.9776,-0.9753,-0.9752,-0.9752,-0.9752,-0.9799,-0.9801,0,0,0,0,0,0,-0.9919,-0.9911,-0.9886,-0.9884,-0.9884,-0.9854,-0.9848,-0.9845,-0.9811,-0.9805,-0.9815,-0.9811,-0.9776,-0.9773,-0.9771,-0.9799,-0.9752,-0.9752,-0.9752,-0.9798,-0.98,-0.9801,0,0,0,0,0,0,-0.992,-0.9917,-0.9888,-0.9896,-0.9891,-0.9855,-0.9852,-0.9845,-0.984,-0.9806,-0.9799,-0.9817,-0.9775,-0.9771,-0.9778,-0.9797,-0.9752,-0.9751,-0.9796,-0.9799,-0.9801,-0.9857,0,0,0,0,0,0,-0.9921,-0.9918,-0.9928,-0.9897,-0.9891,-0.9896,-0.9853,-0.9845,-0.9839,-0.9834,-0.9806,-0.98,-0.9773,-0.9779,-0.9778,-0.9796,-0.9751,-0.9794,-0.9797,-0.98,-0.9853,-0.9861,-0.9867,0,0,0,0,0,-0.9922,-0.9946,-0.9929,-0.9926,-0.9903,-0.9897,-0.9894,-0.9863,-0.9841,-0.9851,-0.9829,-0.9801,-0.9795,-0.978,-0.9779,-0.9796,-0.9793,-0.9796,-0.98,-0.985,-0.9859,-0.9867,0,0,0,0,0,0,-0.9981,-0.9941,-0.9922,-0.9936,-0.992,-0.9888,-0.9899,-0.9874,-0.9864,-0.9859,-0.9821,-0.9815,-0.9827,-0.9812,-0.9796,-0.982,-0.979,-0.9793,-0.9829,-0.9837,-0.9844,-0.9847,-0.9751,0,0,0,0,0,-0.9996,-0.9995,-0.996,-0.9976,-0.9969,-0.9936,-0.9932,-0.9909,-0.9891,-0.9885,-0.9863,-0.9847,-0.9842,-0.9839,-0.9832,-0.9851,-0.9844,-0.9863,-0.987,-0.9876,-0.9878,-0.9886,-0.9893,-0.9812,-0.9812,-0.9812,0,0,-1.0026,-1.0004,-1.0006,-0.9987,-0.9972,-0.9972,-0.993,-0.9932,-0.9931,-0.9885,-0.9889,-0.9873,-0.9853,-0.9866,-0.987,-0.9854,-0.9899,-0.988,-0.9885,-0.9884,-0.989,-0.9898,-0.9904,-0.9814,-0.9814,-0.9814,0,0,-1.008,-1.0064,-1.0075,-1.0061,-1.0039,-1.0016,-1.0019,-0.9989,-0.9976,-0.998,-0.9945,-0.9944,-0.9936,-0.9922,-0.9914,-0.9963,-0.9936,-0.9962,-0.9998,-1.0005,-1.0012,-1.0017,-1.0033,-1.0039,-0.9965,-0.9965,-0.9965,0,-1.0121,-1.0118,-1.0084,-1.0087,-1.008,-1.0037,-1.0048,-1.0036,-1.0013,-1.0008,-0.9991,-0.9978,-0.9962,-0.997,-0.9982,-0.9977,-0.9978,-0.9964,-1.0014,-1.0019,-1.0023,-1.0038,-1.0044,-0.9968,-0.9968,-0.9967,-0.9967,0,-1.0168,-1.0167,-1.0179,-1.0156,-1.015,-1.0157,-1.0124,-1.0122,-1.0099,-1.0078,-1.0082,-1.0061,-1.0048,-1.0049,-1.0027,-1.0053,-1.0044,-1.0021,-0.9989,-1.0035,-1.0048,-1.0053,-0.9972,-0.9971,-0.997,-0.997,0,0,-1.0259,-1.0217,-1.0221,-1.021,-1.0182,-1.018,-1.0185,-1.0172,-1.017,-1.0156,-1.0158,-1.0152,-1.013,-1.0121,-1.0097,-1.0104,-1.0142,-1.008,-1.0079,-1.0091,-1.0168,-1.0184,-1.0191,-1.0125,-1.0126,-1.0126,-1.0169,0,-1.0307,-1.0312,-1.0281,-1.0294,-1.0292,-1.0251,-1.0255,-1.0238,-1.0219,-1.0214,-1.0193,-1.0188,-1.016,-1.0154,-1.0159,-1.0136,-1.0157,-1.0133,-1.0126,-1.0126,-1.013,-1.0198,-1.0216,-1.0257,-1.0174,-1.0175,-1.0175,0,-1.0363,-1.0351,-1.0364,-1.0334,-1.0332,-1.0336,-1.032,-1.0317,-1.0296,-1.0282,-1.0271,-1.0244,-1.0246,-1.0217,-1.0218,-1.0203,-1.0198,-1.0187,-1.0187,-1.0184,-1.0152,-1.0196,-1.027,-1.0276,-1.0183,-1.0183,-1.0182,0,-1.0426,-1.0412,-1.0418,-1.041,-1.0375,-1.0379,-1.0365,-1.0343,-1.0337,-1.0324,-1.0319,-1.0307,-1.03,-1.0291,-1.0261,-1.0243,-1.0266,-1.0234,-1.0253,-1.0253,-1.0258,-1.0258,-1.0331,-1.0258,-1.0258,-1.0258,-1.0258,0,-1.0482,-1.0491,-1.0445,-1.0448,-1.0457,-1.0421,-1.0431,-1.0413,-1.0394,-1.0393,-1.0358,-1.0357,-1.0318,-1.0313,-1.029,-1.0294,-1.0292,-1.0279,-1.0272,-1.0281,-1.0283,-1.0277,-1.0272,-1.0259,-1.0259,-1.0259,-1.0258,0,-1.0553,-1.0523,-1.0525,-1.0493,-1.0484,-1.0492,-1.0464,-1.0465,-1.0443,-1.0442,-1.044,-1.0406,-1.0398,-1.0367,-1.0352,-1.0336,-1.0348,-1.0336,-1.0354,-1.035,-1.0369,-1.0367,-1.0439,-1.0446,-1.0371,-1.0371,-1.0372,0,-1.059,-1.0595,-1.0563,-1.0559,-1.0546,-1.0541,-1.0534,-1.0499,-1.0494,-1.047,-1.0475,-1.0464,-1.0453,-1.0443,-1.0417,-1.0405,-1.0391,-1.0418,-1.0389,-1.0398,-1.039,-1.0389,-1.0389,-1.0423,-1.0424,-1.0425,-1.0426,0,-1.0658,-1.0642,-1.0634,-1.062,-1.0612,-1.06,-1.0585,-1.0584,-1.0545,-1.054,-1.0531,-1.0523,-1.0508,-1.0497,-1.0481,-1.0466,-1.0439,-1.0435,-1.0438,-1.0447,-1.0456,-1.045,-1.0369,-1.0433,-1.0433,-1.0432,-1.0432,-1.0431,-1.0712,-1.0714,-1.0691,-1.0683,-1.0668,-1.0654,-1.0654,-1.0631,-1.0623,-1.0607,-1.0587,-1.0581,-1.056,-1.0535,-1.0522,-1.0516,-1.0501,-1.0506,-1.0507,-1.0509,-1.0513,-1.0459,-1.0513,-1.0513,-1.0513,-1.0512,-1.0512,0,-1.0777,-1.076,-1.0752,-1.0732,-1.0725,-1.07,-1.0683,-1.0678,-1.0673,-1.0655,-1.0645,-1.0634,-1.0624,-1.0596,-1.0583,-1.0583,-1.0571,-1.0581,-1.058,-1.0576,-1.0527,-1.0525,-1.0591,-1.0591,-1.0591,-1.0591,-1.0591,-1.0591,-1.081,-1.0812,-1.0794,-1.0789,-1.0772,-1.0765,-1.0756,-1.0744,-1.0729,-1.0719,-1.0709,-1.0692,-1.067,-1.0654,-1.0643,-1.0635,-1.0631,-1.0645,-1.0633,-1.0588,-1.058,-1.0573,-1.057,-1.0645,-1.0645,-1.0682,-1.0683,-1.0683]}]]